| time (UTC) | temp C | wind direction | speed KPH | gust KPH | rain 1hr cm | rain 24hr cm | rain mn cm | humidity % | barometer mb |
| 20260905183555 | 37 | 179 | 4.8 | 4.8 | 0.00 | 0.00 | 0.00 | 40 | 1014.5 |
| 20260905183051 | 36 | 253 | 3.2 | 3.2 | 0.00 | 0.00 | 0.00 | 40 | 1015.2 |
| 20260905182545 | 36 | 184 | 1.6 | 3.2 | 0.00 | 0.00 | 0.00 | 40 | 1014.8 |
| 20260905182044 | 36 | 132 | 1.6 | 3.2 | 0.00 | 0.00 | 0.00 | 42 | 1015.2 |
| 20260905181539 | 37 | 275 | 1.6 | 1.6 | 0.00 | 0.00 | 0.00 | 43 | 1015.2 |
| 20260905181039 | 36 | 148 | 0.0 | 1.6 | 0.00 | 0.00 | 0.00 | 43 | 1015.2 |
| 20260905180533 | 36 | 181 | 8.0 | 9.7 | 0.00 | 0.00 | 0.00 | 43 | 1015.5 |
| 20260905180029 | 36 | 283 | 4.8 | 4.8 | 0.00 | 0.00 | 0.00 | 44 | 1015.5 |
| 20260905175528 | 35 | 242 | 1.6 | 1.6 | 0.00 | 0.00 | 0.00 | 46 | 1015.5 |
| 20260905175024 | 36 | 174 | 6.4 | 8.0 | 0.00 | 0.00 | 0.00 | 45 | 1015.8 |
| 20260905174519 | 35 | 268 | 1.6 | 3.2 | 0.00 | 0.00 | 0.00 | 46 | 1016.2 |
| 20260905174014 | 35 | 293 | 4.8 | 4.8 | 0.00 | 0.00 | 0.00 | 46 | 1015.8 |
| 20260905173511 | 34 | 159 | 3.2 | 4.8 | 0.00 | 0.00 | 0.00 | 47 | 1016.2 |
| 20260905173006 | 35 | 206 | 8.0 | 9.7 | 0.00 | 0.00 | 0.00 | 45 | 1016.2 |
| 20260905172504 | 35 | 271 | 4.8 | 4.8 | 0.00 | 0.00 | 0.00 | 45 | 1016.2 |
| 20260905172000 | 35 | 186 | 4.8 | 8.0 | 0.00 | 0.00 | 0.00 | 48 | 1016.5 |
| 20260905171456 | 34 | 272 | 1.6 | 1.6 | 0.00 | 0.00 | 0.00 | 51 | 1016.2 |
| 20260905170952 | 34 | 89 | 6.4 | 9.7 | 0.00 | 0.00 | 0.00 | 52 | 1016.2 |
| 20260905170448 | 35 | 208 | 6.4 | 8.0 | 0.00 | 0.00 | 0.00 | 50 | 1016.2 |
| 20260905165947 | 34 | 198 | 4.8 | 8.0 | 0.00 | 0.00 | 0.00 | 51 | 1016.5 |
| 20260905165443 | 34 | 221 | 1.6 | 3.2 | 0.00 | 0.00 | 0.00 | 51 | 1016.5 |
| 20260905164938 | 33 | 226 | 4.8 | 4.8 | 0.00 | 0.00 | 0.00 | 53 | 1016.2 |
| 20260905164432 | 33 | 267 | 1.6 | 1.6 | 0.00 | 0.00 | 0.00 | 54 | 1016.2 |
| 20260905163927 | 33 | 237 | 4.8 | 4.8 | 0.00 | 0.00 | 0.00 | 56 | 1016.5 |
| 20260905163424 | 33 | 237 | 1.6 | 3.2 | 0.00 | 0.00 | 0.00 | 56 | 1016.5 |
| 20260905162920 | 33 | 207 | 9.7 | 14.5 | 0.00 | 0.00 | 0.00 | 54 | 1016.5 |
| 20260905162414 | 33 | 141 | 6.4 | 8.0 | 0.00 | 0.00 | 0.00 | 54 | 1016.5 |
| 20260905161909 | 33 | 206 | 8.0 | 12.9 | 0.00 | 0.00 | 0.00 | 56 | 1016.5 |
| 20260905161409 | 33 | 226 | 1.6 | 1.6 | 0.00 | 0.00 | 0.00 | 57 | 1016.5 |
| 20260905160906 | 33 | 143 | 3.2 | 3.2 | 0.00 | 0.00 | 0.00 | 59 | 1016.5 |
| 20260905160401 | 33 | 274 | 3.2 | 3.2 | 0.00 | 0.00 | 0.00 | 60 | 1016.9 |
| 20260905155855 | 33 | 254 | 3.2 | 4.8 | 0.00 | 0.00 | 0.00 | 60 | 1016.5 |
| 20260905155355 | 33 | 316 | 3.2 | 4.8 | 0.00 | 0.00 | 0.00 | 60 | 1016.5 |
| 20260905154854 | 32 | 183 | 4.8 | 4.8 | 0.00 | 0.00 | 0.00 | 62 | 1016.5 |
| 20260905154349 | 32 | 308 | 3.2 | 3.2 | 0.00 | 0.00 | 0.00 | 62 | 1016.5 |
| 20260905153845 | 32 | 279 | 1.6 | 1.6 | 0.00 | 0.00 | 0.00 | 62 | 1016.5 |
| 20260905153342 | 31 | 228 | 0.0 | 1.6 | 0.00 | 0.00 | 0.00 | 64 | 1016.5 |
| 20260905152841 | 32 | 271 | 1.6 | 1.6 | 0.00 | 0.00 | 0.00 | 65 | 1016.9 |
| 20260905152340 | 31 | 257 | 1.6 | 1.6 | 0.00 | 0.00 | 0.00 | 67 | 1016.5 |
| 20260905151835 | 31 | 268 | 0.0 | 1.6 | 0.00 | 0.00 | 0.00 | 68 | 1016.9 |
| 20260905151331 | 30 | 230 | 1.6 | 1.6 | 0.00 | 0.00 | 0.00 | 72 | 1016.5 |
| 20260905150831 | 31 | 262 | 1.6 | 1.6 | 0.00 | 0.00 | 0.00 | 68 | 1016.5 |
| 20260905150325 | 31 | 252 | 0.0 | 0.0 | 0.00 | 0.00 | 0.00 | 69 | 1016.5 |
| 20260905145822 | 30 | 206 | 3.2 | 3.2 | 0.00 | 0.00 | 0.00 | 72 | 1016.5 |
| 20260905145316 | 30 | 203 | 3.2 | 3.2 | 0.00 | 0.00 | 0.00 | 74 | 1016.9 |
| 20260905144815 | 30 | 263 | 1.6 | 1.6 | 0.00 | 0.00 | 0.00 | 74 | 1016.5 |
| 20260905144311 | 30 | 243 | 0.0 | 0.0 | 0.00 | 0.00 | 0.00 | 76 | 1016.5 |
| 20260905143810 | 30 | 284 | 1.6 | 1.6 | 0.00 | 0.00 | 0.00 | 75 | 1016.9 |
| 20260905143304 | 30 | 277 | 1.6 | 1.6 | 0.00 | 0.00 | 0.00 | 76 | 1016.5 |
| 20260905142803 | 29 | 261 | 0.0 | 0.0 | 0.00 | 0.00 | 0.00 | 79 | 1016.2 |
| 20260905142257 | 28 | 275 | 0.0 | 1.6 | 0.00 | 0.00 | 0.00 | 82 | 1016.5 |
| 20260905141754 | 28 | 167 | 1.6 | 1.6 | 0.00 | 0.00 | 0.00 | 83 | 1016.2 |
| 20260905141249 | 28 | 227 | 1.6 | 1.6 | 0.00 | 0.00 | 0.00 | 85 | 1016.5 |
| 20260905140744 | 28 | 203 | 3.2 | 4.8 | 0.00 | 0.00 | 0.00 | 83 | 1016.2 |
| 20260905140239 | 28 | 232 | 1.6 | 1.6 | 0.00 | 0.00 | 0.00 | 84 | 1016.2 |
| 20260905135738 | 28 | 201 | 1.6 | 1.6 | 0.00 | 0.00 | 0.00 | 84 | 1016.2 |
| 20260905135234 | 28 | 243 | 1.6 | 1.6 | 0.00 | 0.00 | 0.00 | 83 | 1016.2 |
| 20260905134733 | 28 | 255 | 0.0 | 1.6 | 0.00 | 0.00 | 0.00 | 84 | 1016.2 |
| 20260905134233 | 28 | 159 | 1.6 | 3.2 | 0.00 | 0.00 | 0.00 | 83 | 1016.2 |
| 20260905133728 | 27 | 162 | 1.6 | 3.2 | 0.00 | 0.00 | 0.00 | 85 | 1016.2 |
| 20260905133223 | 27 | 216 | 1.6 | 1.6 | 0.00 | 0.00 | 0.00 | 84 | 1016.2 |
| 20260905132722 | 27 | 185 | 1.6 | 1.6 | 0.00 | 0.00 | 0.00 | 84 | 1015.8 |
| 20260905132218 | 27 | 227 | 1.6 | 1.6 | 0.00 | 0.00 | 0.00 | 86 | 1016.2 |
| 20260905131713 | 27 | 234 | 0.0 | 0.0 | 0.00 | 0.00 | 0.00 | 86 | 1015.8 |
| 20260905131208 | 26 | 230 | 0.0 | 0.0 | 0.00 | 0.00 | 0.00 | 88 | 1016.2 |
| 20260905130702 | 26 | 191 | 1.6 | 1.6 | 0.00 | 0.00 | 0.00 | 90 | 1015.8 |
| 20260905130202 | 25 | 180 | 1.6 | 3.2 | 0.00 | 0.00 | 0.00 | 91 | 1015.8 |
| 20260905125656 | 25 | 205 | 0.0 | 1.6 | 0.00 | 0.00 | 0.00 | 92 | 1015.8 |
| 20260905125152 | 25 | 184 | 1.6 | 3.2 | 0.00 | 0.00 | 0.00 | 92 | 1015.8 |
| 20260905124648 | 25 | 237 | 0.0 | 0.0 | 0.00 | 0.00 | 0.00 | 92 | 1015.8 |
| 20260905124144 | 25 | 223 | 0.0 | 0.0 | 0.00 | 0.00 | 0.00 | 92 | 1015.8 |
| 20260905123639 | 25 | 240 | 0.0 | 0.0 | 0.00 | 0.00 | 0.00 | 92 | 1015.5 |
| 20260905123136 | 25 | 246 | 0.0 | 0.0 | 0.00 | 0.00 | 0.00 | 92 | 1015.5 |
| 20260905122635 | 25 | 243 | 0.0 | 0.0 | 0.00 | 0.00 | 0.00 | 92 | 1015.5 |
| 20260905122131 | 25 | 242 | 0.0 | 0.0 | 0.00 | 0.00 | 0.00 | 92 | 1015.5 |
| 20260905121625 | 25 | 242 | 0.0 | 0.0 | 0.00 | 0.00 | 0.00 | 92 | 1015.2 |
| 20260905121120 | 25 | 242 | 0.0 | 0.0 | 0.00 | 0.00 | 0.00 | 91 | 1015.2 |
| 20260905120619 | 25 | 232 | 0.0 | 0.0 | 0.00 | 0.00 | 0.00 | 91 | 1015.2 |
| 20260905120114 | 25 | 222 | 0.0 | 1.6 | 0.00 | 0.00 | 0.00 | 90 | 1015.2 |
| 20260905115614 | 25 | 244 | 0.0 | 0.0 | 0.00 | 0.00 | 0.00 | 90 | 1015.5 |
| 20260905115109 | 25 | 255 | 0.0 | 1.6 | 0.00 | 0.00 | 0.00 | 90 | 1015.2 |
| 20260905114608 | 25 | 241 | 0.0 | 0.0 | 0.00 | 0.00 | 0.00 | 91 | 1015.2 |
| 20260905114107 | 25 | 248 | 0.0 | 0.0 | 0.00 | 0.00 | 0.00 | 91 | 1015.2 |
| 20260905113603 | 25 | 240 | 0.0 | 0.0 | 0.00 | 0.00 | 0.00 | 91 | 1015.2 |
| 20260905113057 | 25 | 243 | 0.0 | 0.0 | 0.00 | 0.00 | 0.00 | 91 | 1015.2 |
| 20260905112552 | 25 | 270 | 0.0 | 0.0 | 0.00 | 0.00 | 0.00 | 91 | 1015.2 |
| 20260905112048 | 25 | 260 | 0.0 | 0.0 | 0.00 | 0.00 | 0.00 | 91 | 1015.2 |
| 20260905111543 | 25 | 267 | 0.0 | 0.0 | 0.00 | 0.00 | 0.00 | 92 | 1015.2 |
| 20260905111042 | 25 | 275 | 0.0 | 0.0 | 0.00 | 0.00 | 0.00 | 92 | 1015.2 |
| 20260905110541 | 25 | 274 | 0.0 | 0.0 | 0.00 | 0.00 | 0.00 | 92 | 1015.2 |
| 20260905110037 | 25 | 274 | 0.0 | 0.0 | 0.00 | 0.00 | 0.00 | 92 | 1015.2 |
| 20260905105537 | 25 | 274 | 0.0 | 0.0 | 0.00 | 0.00 | 0.00 | 92 | 1014.8 |
| 20260905105036 | 25 | 267 | 0.0 | 0.0 | 0.00 | 0.00 | 0.00 | 93 | 1014.8 |
| 20260905104532 | 24 | 271 | 0.0 | 0.0 | 0.00 | 0.00 | 0.00 | 93 | 1014.8 |
| 20260905104031 | 24 | 272 | 0.0 | 0.0 | 0.00 | 0.00 | 0.00 | 93 | 1015.2 |
| 20260905103527 | 24 | 272 | 0.0 | 0.0 | 0.00 | 0.00 | 0.00 | 93 | 1014.8 |
| 20260905103023 | 24 | 273 | 0.0 | 0.0 | 0.00 | 0.00 | 0.00 | 93 | 1014.8 |
| 20260905102518 | 24 | 272 | 0.0 | 0.0 | 0.00 | 0.00 | 0.00 | 92 | 1014.8 |
| 20260905102015 | 24 | 272 | 0.0 | 0.0 | 0.00 | 0.00 | 0.00 | 92 | 1015.2 |
| 20260905101513 | 24 | 262 | 0.0 | 0.0 | 0.00 | 0.00 | 0.00 | 92 | 1014.8 |
| 20260905101011 | 24 | 268 | 0.0 | 0.0 | 0.00 | 0.00 | 0.00 | 92 | 1014.8 |
| 20260905100508 | 24 | 271 | 0.0 | 0.0 | 0.00 | 0.00 | 0.00 | 92 | 1014.8 |
| 20260905100008 | 24 | 274 | 0.0 | 0.0 | 0.00 | 0.00 | 0.00 | 92 | 1014.5 |
| 20260905095502 | 25 | 255 | 0.0 | 0.0 | 0.00 | 0.00 | 0.00 | 92 | 1014.8 |
| 20260905094957 | 25 | 269 | 0.0 | 0.0 | 0.00 | 0.00 | 0.00 | 92 | 1014.5 |
| 20260905094452 | 24 | 263 | 0.0 | 0.0 | 0.00 | 0.00 | 0.00 | 92 | 1014.5 |
| 20260905093951 | 24 | 256 | 0.0 | 0.0 | 0.00 | 0.00 | 0.00 | 92 | 1014.8 |
| 20260905093447 | 24 | 255 | 0.0 | 0.0 | 0.00 | 0.00 | 0.00 | 91 | 1014.5 |
| 20260905092942 | 24 | 260 | 0.0 | 0.0 | 0.00 | 0.00 | 0.00 | 91 | 1014.5 |
| 20260905092438 | 24 | 260 | 0.0 | 0.0 | 0.00 | 0.00 | 0.00 | 90 | 1014.8 |
| 20260905091933 | 24 | 260 | 0.0 | 0.0 | 0.00 | 0.00 | 0.00 | 90 | 1014.8 |
| 20260905091433 | 24 | 259 | 0.0 | 0.0 | 0.00 | 0.00 | 0.00 | 90 | 1014.8 |
| 20260905090932 | 25 | 246 | 0.0 | 0.0 | 0.00 | 0.00 | 0.00 | 90 | 1014.8 |
| 20260905090428 | 25 | 237 | 0.0 | 0.0 | 0.00 | 0.00 | 0.00 | 90 | 1014.5 |
| 20260905085927 | 25 | 249 | 0.0 | 0.0 | 0.00 | 0.00 | 0.00 | 90 | 1014.8 |
| 20260905085426 | 25 | 241 | 0.0 | 0.0 | 0.00 | 0.00 | 0.00 | 90 | 1014.8 |
| 20260905084922 | 25 | 262 | 0.0 | 0.0 | 0.00 | 0.00 | 0.00 | 89 | 1014.8 |
| 20260905084421 | 25 | 241 | 0.0 | 0.0 | 0.00 | 0.00 | 0.00 | 89 | 1014.8 |
| 20260905083916 | 25 | 249 | 0.0 | 0.0 | 0.00 | 0.00 | 0.00 | 89 | 1014.8 |
| 20260905083412 | 25 | 234 | 0.0 | 0.0 | 0.00 | 0.00 | 0.00 | 89 | 1014.8 |
| 20260905082908 | 25 | 240 | 0.0 | 0.0 | 0.00 | 0.00 | 0.00 | 88 | 1014.8 |
| 20260905082404 | 25 | 246 | 0.0 | 0.0 | 0.00 | 0.00 | 0.00 | 88 | 1015.2 |
| 20260905081858 | 25 | 249 | 0.0 | 0.0 | 0.00 | 0.00 | 0.00 | 88 | 1015.2 |
| 20260905081353 | 25 | 251 | 0.0 | 0.0 | 0.00 | 0.00 | 0.00 | 88 | 1015.2 |
| 20260905080852 | 25 | 245 | 0.0 | 0.0 | 0.00 | 0.00 | 0.00 | 88 | 1014.8 |
| 20260905080347 | 25 | 233 | 0.0 | 0.0 | 0.00 | 0.00 | 0.00 | 87 | 1015.2 |
| 20260905075846 | 25 | 238 | 0.0 | 1.6 | 0.00 | 0.00 | 0.00 | 86 | 1015.2 |
| 20260905075345 | 25 | 214 | 0.0 | 0.0 | 0.00 | 0.00 | 0.00 | 86 | 1015.2 |
| 20260905074844 | 25 | 245 | 0.0 | 0.0 | 0.00 | 0.00 | 0.00 | 86 | 1015.2 |
| 20260905074341 | 25 | 239 | 0.0 | 0.0 | 0.00 | 0.00 | 0.00 | 85 | 1015.2 |
| 20260905073836 | 25 | 241 | 0.0 | 0.0 | 0.00 | 0.00 | 0.00 | 85 | 1015.2 |
| 20260905073331 | 25 | 231 | 0.0 | 1.6 | 0.00 | 0.00 | 0.00 | 85 | 1015.2 |
| 20260905072826 | 25 | 236 | 0.0 | 0.0 | 0.00 | 0.00 | 0.00 | 85 | 1015.2 |
| 20260905072321 | 25 | 225 | 0.0 | 0.0 | 0.00 | 0.00 | 0.00 | 84 | 1015.2 |
| 20260905071818 | 25 | 239 | 0.0 | 0.0 | 0.00 | 0.00 | 0.00 | 84 | 1015.2 |
| 20260905071314 | 26 | 240 | 0.0 | 0.0 | 0.00 | 0.00 | 0.00 | 84 | 1015.5 |
| 20260905070808 | 26 | 242 | 0.0 | 0.0 | 0.00 | 0.00 | 0.00 | 83 | 1015.5 |
| 20260905070304 | 26 | 234 | 0.0 | 0.0 | 0.00 | 0.00 | 0.00 | 83 | 1015.5 |
| 20260905065803 | 26 | 231 | 0.0 | 0.0 | 0.00 | 0.00 | 0.00 | 83 | 1015.5 |
| 20260905065256 | 26 | 235 | 0.0 | 0.0 | 0.00 | 0.00 | 0.00 | 83 | 1015.5 |
| 20260905064752 | 26 | 239 | 0.0 | 0.0 | 0.00 | 0.00 | 0.00 | 82 | 1015.5 |
| 20260905064247 | 26 | 237 | 0.0 | 0.0 | 0.00 | 0.00 | 0.00 | 82 | 1015.5 |
| 20260905063746 | 26 | 249 | 0.0 | 0.0 | 0.00 | 0.00 | 0.00 | 82 | 1015.2 |
| 20260905063242 | 26 | 249 | 0.0 | 1.6 | 0.00 | 0.00 | 0.00 | 81 | 1015.5 |
| 20260905062738 | 26 | 251 | 0.0 | 0.0 | 0.00 | 0.00 | 0.00 | 81 | 1015.5 |
| 20260905062238 | 26 | 226 | 0.0 | 0.0 | 0.00 | 0.00 | 0.00 | 80 | 1015.5 |
| 20260905061738 | 26 | 208 | 0.0 | 0.0 | 0.00 | 0.00 | 0.00 | 80 | 1015.5 |
| 20260905061232 | 26 | 255 | 0.0 | 1.6 | 0.00 | 0.00 | 0.00 | 80 | 1015.5 |
| 20260905060726 | 26 | 221 | 1.6 | 3.2 | 0.00 | 0.00 | 0.00 | 80 | 1015.5 |
| 20260905060224 | 26 | 246 | 0.0 | 1.6 | 0.00 | 0.00 | 0.00 | 79 | 1015.8 |
| 20260905055721 | 26 | 239 | 0.0 | 1.6 | 0.00 | 0.00 | 0.00 | 79 | 1015.2 |
| 20260905055217 | 26 | 246 | 0.0 | 0.0 | 0.00 | 0.00 | 0.00 | 79 | 1015.5 |
| 20260905054712 | 26 | 248 | 0.0 | 0.0 | 0.00 | 0.00 | 0.00 | 79 | 1015.5 |
| 20260905054209 | 26 | 227 | 1.6 | 1.6 | 0.00 | 0.00 | 0.00 | 78 | 1015.5 |
| 20260905053708 | 26 | 225 | 0.0 | 1.6 | 0.00 | 0.00 | 0.00 | 78 | 1015.5 |
| 20260905053202 | 27 | 165 | 0.0 | 1.6 | 0.00 | 0.00 | 0.00 | 77 | 1015.5 |
| 20260905052657 | 27 | 249 | 0.0 | 0.0 | 0.00 | 0.00 | 0.00 | 77 | 1015.5 |
| 20260905052152 | 27 | 232 | 0.0 | 1.6 | 0.00 | 0.00 | 0.00 | 77 | 1015.2 |
| 20260905051646 | 27 | 255 | 0.0 | 0.0 | 0.00 | 0.00 | 0.00 | 76 | 1015.8 |
| 20260905051143 | 27 | 137 | 1.6 | 3.2 | 0.00 | 0.00 | 0.00 | 76 | 1015.8 |
| 20260905050639 | 27 | 184 | 0.0 | 1.6 | 0.00 | 0.00 | 0.00 | 76 | 1015.5 |
| 20260905050136 | 27 | 229 | 1.6 | 1.6 | 0.00 | 0.00 | 0.00 | 76 | 1015.5 |
| 20260905045635 | 27 | 216 | 1.6 | 1.6 | 0.00 | 0.00 | 0.00 | 76 | 1015.5 |
| 20260905045131 | 27 | 211 | 0.0 | 0.0 | 0.00 | 0.00 | 0.00 | 75 | 1015.5 |
| 20260905044631 | 27 | 250 | 0.0 | 1.6 | 0.00 | 0.00 | 0.00 | 75 | 1015.5 |
| 20260905044126 | 27 | 215 | 0.0 | 1.6 | 0.00 | 0.00 | 0.00 | 75 | 1015.5 |
| 20260905043624 | 27 | 186 | 1.6 | 1.6 | 0.00 | 0.00 | 0.00 | 75 | 1015.5 |
| 20260905043120 | 27 | 215 | 0.0 | 1.6 | 0.00 | 0.00 | 0.00 | 75 | 1015.5 |
| 20260905042619 | 27 | 236 | 0.0 | 0.0 | 0.00 | 0.00 | 0.00 | 74 | 1015.5 |
| 20260905042114 | 27 | 189 | 1.6 | 1.6 | 0.00 | 0.00 | 0.00 | 74 | 1015.5 |
| 20260905041609 | 27 | 222 | 0.0 | 1.6 | 0.00 | 0.00 | 0.00 | 74 | 1015.8 |
| 20260905041104 | 27 | 211 | 0.0 | 0.0 | 0.00 | 0.00 | 0.00 | 74 | 1015.5 |
| 20260905040559 | 27 | 220 | 0.0 | 0.0 | 0.00 | 0.00 | 0.00 | 74 | 1015.5 |
| 20260905040057 | 27 | 243 | 0.0 | 0.0 | 0.00 | 0.00 | 0.00 | 73 | 1015.5 |
| 20260905035553 | 27 | 190 | 0.0 | 0.0 | 0.00 | 0.00 | 0.00 | 72 | 1015.5 |
| 20260905035049 | 27 | 157 | 0.0 | 0.0 | 0.00 | 0.00 | 0.00 | 72 | 1015.2 |
| 20260905034545 | 28 | 252 | 0.0 | 1.6 | 0.00 | 0.00 | 0.00 | 72 | 1015.5 |
| 20260905034045 | 28 | 216 | 1.6 | 1.6 | 0.00 | 0.00 | 0.00 | 71 | 1015.5 |
| 20260905033538 | 28 | 235 | 0.0 | 1.6 | 0.00 | 0.00 | 0.00 | 71 | 1015.5 |
| 20260905033034 | 28 | 236 | 0.0 | 1.6 | 0.00 | 0.00 | 0.00 | 71 | 1015.5 |
| 20260905032535 | 28 | 203 | 1.6 | 1.6 | 0.00 | 0.00 | 0.00 | 70 | 1015.5 |
| 20260905032030 | 28 | 157 | 1.6 | 3.2 | 0.00 | 0.00 | 0.00 | 70 | 1015.2 |
| 20260905031526 | 28 | 237 | 0.0 | 0.0 | 0.00 | 0.00 | 0.00 | 69 | 1015.5 |
| 20260905031025 | 28 | 221 | 0.0 | 0.0 | 0.00 | 0.00 | 0.00 | 68 | 1015.2 |
| 20260905030520 | 28 | 210 | 1.6 | 1.6 | 0.00 | 0.00 | 0.00 | 68 | 1015.2 |
| 20260905030015 | 28 | 205 | 1.6 | 1.6 | 0.00 | 0.00 | 0.00 | 68 | 1015.2 |
| 20260905025510 | 28 | 233 | 0.0 | 1.6 | 0.00 | 0.00 | 0.00 | 67 | 1015.2 |
| 20260905025006 | 28 | 238 | 1.6 | 1.6 | 0.00 | 0.00 | 0.00 | 67 | 1015.2 |
| 20260905024501 | 28 | 205 | 1.6 | 3.2 | 0.00 | 0.00 | 0.00 | 67 | 1015.2 |
| 20260905023956 | 28 | 176 | 3.2 | 3.2 | 0.00 | 0.00 | 0.00 | 67 | 1014.8 |
| 20260905023451 | 28 | 200 | 0.0 | 0.0 | 0.00 | 0.00 | 0.00 | 68 | 1015.2 |
| 20260905022950 | 28 | 243 | 1.6 | 1.6 | 0.00 | 0.00 | 0.00 | 68 | 1014.8 |
| 20260905022445 | 28 | 248 | 0.0 | 0.0 | 0.00 | 0.00 | 0.00 | 67 | 1015.2 |
| 20260905021941 | 28 | 241 | 0.0 | 0.0 | 0.00 | 0.00 | 0.00 | 67 | 1014.8 |
| 20260905021440 | 28 | 114 | 1.6 | 1.6 | 0.00 | 0.00 | 0.00 | 67 | 1014.5 |
| 20260905020936 | 28 | 142 | 0.0 | 1.6 | 0.00 | 0.00 | 0.00 | 67 | 1014.5 |
| 20260905020435 | 29 | 255 | 0.0 | 0.0 | 0.00 | 0.00 | 0.00 | 66 | 1014.5 |
| 20260905015930 | 29 | 247 | 0.0 | 0.0 | 0.00 | 0.00 | 0.00 | 66 | 1014.5 |
| 20260905015428 | 29 | 214 | 1.6 | 1.6 | 0.00 | 0.00 | 0.00 | 66 | 1014.5 |
| 20260905014927 | 29 | 238 | 0.0 | 0.0 | 0.00 | 0.00 | 0.00 | 66 | 1014.1 |
| 20260905014423 | 29 | 241 | 1.6 | 1.6 | 0.00 | 0.00 | 0.00 | 66 | 1014.5 |
| 20260905013918 | 30 | 239 | 0.0 | 1.6 | 0.00 | 0.00 | 0.00 | 66 | 1014.5 |
| 20260905013415 | 30 | 240 | 0.0 | 0.0 | 0.00 | 0.00 | 0.00 | 66 | 1014.5 |
| 20260905012910 | 30 | 203 | 1.6 | 1.6 | 0.00 | 0.00 | 0.00 | 66 | 1014.1 |
| 20260905012405 | 30 | 172 | 1.6 | 1.6 | 0.00 | 0.00 | 0.00 | 65 | 1014.1 |
| 20260905011902 | 30 | 188 | 1.6 | 1.6 | 0.00 | 0.00 | 0.00 | 65 | 1014.5 |
| 20260905011357 | 30 | 239 | 1.6 | 1.6 | 0.00 | 0.00 | 0.00 | 65 | 1014.5 |
| 20260905010853 | 30 | 237 | 4.8 | 4.8 | 0.00 | 0.00 | 0.00 | 65 | 1014.1 |
| 20260905010347 | 30 | 228 | 3.2 | 4.8 | 0.00 | 0.00 | 0.00 | 64 | 1014.1 |
| 20260905005843 | 30 | 156 | 3.2 | 3.2 | 0.00 | 0.00 | 0.00 | 64 | 1013.8 |
| 20260905005339 | 30 | 131 | 4.8 | 4.8 | 0.00 | 0.00 | 0.00 | 63 | 1013.8 |
| 20260905004834 | 30 | 106 | 4.8 | 4.8 | 0.00 | 0.00 | 0.00 | 63 | 1013.5 |
| 20260905004328 | 31 | 121 | 1.6 | 3.2 | 0.00 | 0.00 | 0.00 | 62 | 1013.8 |
| 20260905003824 | 31 | 170 | 1.6 | 3.2 | 0.00 | 0.00 | 0.00 | 62 | 1013.8 |
| 20260905003320 | 31 | 166 | 1.6 | 8.0 | 0.00 | 0.00 | 0.00 | 62 | 1013.8 |
| 20260905002815 | 31 | 80 | 4.8 | 8.0 | 0.00 | 0.00 | 0.00 | 62 | 1013.8 |
| 20260905002309 | 31 | 172 | 4.8 | 4.8 | 0.00 | 0.00 | 0.00 | 62 | 1013.8 |
| 20260905001804 | 31 | 86 | 3.2 | 4.8 | 0.00 | 0.00 | 0.00 | 62 | 1013.8 |
| 20260905001304 | 31 | 142 | 8.0 | 11.3 | 0.00 | 0.00 | 0.00 | 61 | 1013.8 |
| 20260905000759 | 31 | 125 | 6.4 | 8.0 | 0.00 | 0.00 | 0.00 | 61 | 1013.8 |
| 20260905000255 | 31 | 165 | 9.7 | 11.3 | 0.00 | 0.00 | 0.00 | 61 | 1013.8 |
| 20260904235750 | 31 | 78 | 8.0 | 8.0 | 0.00 | 0.00 | 0.00 | 60 | 1013.5 |
| 20260904235250 | 32 | 184 | 6.4 | 8.0 | 0.00 | 0.00 | 0.00 | 58 | 1013.5 |
| 20260904234745 | 32 | 250 | 3.2 | 3.2 | 0.00 | 0.00 | 0.00 | 57 | 1013.8 |
| 20260904234240 | 32 | 137 | 4.8 | 8.0 | 0.00 | 0.00 | 0.00 | 56 | 1013.5 |
| 20260904233736 | 32 | 161 | 4.8 | 9.7 | 0.00 | 0.00 | 0.00 | 55 | 1013.8 |
| 20260904233232 | 32 | 206 | 3.2 | 4.8 | 0.00 | 0.00 | 0.00 | 55 | 1013.8 |
| 20260904232728 | 32 | 165 | 1.6 | 3.2 | 0.00 | 0.00 | 0.00 | 55 | 1013.8 |
| 20260904232224 | 32 | 38 | 4.8 | 9.7 | 0.00 | 0.00 | 0.00 | 55 | 1013.5 |
| 20260904231719 | 32 | 15 | 3.2 | 4.8 | 0.00 | 0.00 | 0.00 | 55 | 1013.5 |
| 20260904231215 | 32 | 43 | 0.0 | 1.6 | 0.00 | 0.00 | 0.00 | 55 | 1013.5 |
| 20260904230709 | 32 | 106 | 3.2 | 9.7 | 0.00 | 0.00 | 0.00 | 55 | 1013.5 |
| 20260904230203 | 32 | 75 | 0.0 | 1.6 | 0.00 | 0.00 | 0.00 | 55 | 1013.8 |
| 20260904225702 | 32 | 130 | 6.4 | 9.7 | 0.00 | 0.00 | 0.00 | 56 | 1013.5 |
| 20260904225156 | 32 | 184 | 6.4 | 8.0 | 0.00 | 0.00 | 0.00 | 56 | 1013.5 |
| 20260904224650 | 32 | 151 | 8.0 | 12.9 | 0.00 | 0.00 | 0.00 | 57 | 1013.5 |
| 20260904224145 | 32 | 152 | 9.7 | 12.9 | 0.00 | 0.00 | 0.00 | 57 | 1013.8 |
| 20260904223644 | 32 | 139 | 8.0 | 12.9 | 0.00 | 0.00 | 0.00 | 57 | 1013.5 |
| 20260904223140 | 32 | 132 | 8.0 | 9.7 | 0.00 | 0.00 | 0.00 | 57 | 1013.8 |
| 20260904222636 | 32 | 223 | 4.8 | 4.8 | 0.00 | 0.00 | 0.00 | 58 | 1013.8 |
| 20260904222131 | 32 | 22 | 6.4 | 8.0 | 0.00 | 0.00 | 0.00 | 57 | 1013.8 |
| 20260904221631 | 32 | 137 | 6.4 | 11.3 | 0.00 | 0.00 | 0.00 | 56 | 1013.8 |
| 20260904221125 | 33 | 43 | 11.3 | 17.7 | 0.00 | 0.00 | 0.00 | 56 | 1013.5 |
| 20260904220620 | 33 | 86 | 8.0 | 12.9 | 0.00 | 0.00 | 0.00 | 54 | 1013.8 |
| 20260904220115 | 35 | 176 | 6.4 | 8.0 | 0.00 | 0.00 | 0.00 | 48 | 1013.5 |
| 20260904215610 | 35 | 168 | 4.8 | 4.8 | 0.00 | 0.00 | 0.00 | 47 | 1013.5 |
| 20260904215106 | 35 | 208 | 1.6 | 1.6 | 0.00 | 0.00 | 0.00 | 47 | 1013.5 |
| 20260904214601 | 35 | 166 | 1.6 | 3.2 | 0.00 | 0.00 | 0.00 | 48 | 1013.8 |
| 20260904214057 | 34 | 290 | 1.6 | 1.6 | 0.00 | 0.00 | 0.00 | 49 | 1013.8 |
| 20260904213554 | 35 | 223 | 3.2 | 3.2 | 0.00 | 0.00 | 0.00 | 48 | 1014.1 |
| 20260904213052 | 35 | 235 | 4.8 | 8.0 | 0.00 | 0.00 | 0.00 | 46 | 1014.1 |
| 20260904212551 | 35 | 195 | 4.8 | 11.3 | 0.00 | 0.00 | 0.00 | 45 | 1013.8 |
| 20260904212046 | 35 | 193 | 11.3 | 14.5 | 0.00 | 0.00 | 0.00 | 47 | 1014.1 |
| 20260904211545 | 35 | 253 | 6.4 | 9.7 | 0.00 | 0.00 | 0.00 | 48 | 1014.1 |
| 20260904211041 | 35 | 204 | 8.0 | 9.7 | 0.00 | 0.00 | 0.00 | 50 | 1014.5 |
| 20260904210540 | 35 | 243 | 1.6 | 1.6 | 0.00 | 0.00 | 0.00 | 49 | 1014.5 |
| 20260904210037 | 35 | 213 | 8.0 | 12.9 | 0.00 | 0.00 | 0.00 | 49 | 1014.5 |
| 20260904205537 | 35 | 269 | 8.0 | 9.7 | 0.00 | 0.00 | 0.00 | 49 | 1014.5 |
| 20260904205033 | 34 | 240 | 4.8 | 4.8 | 0.00 | 0.00 | 0.00 | 54 | 1014.5 |
| 20260904204529 | 33 | 211 | 3.2 | 4.8 | 0.00 | 0.00 | 0.00 | 55 | 1014.5 |
| 20260904204025 | 32 | 256 | 1.6 | 1.6 | 0.00 | 0.00 | 0.00 | 58 | 1014.5 |
| 20260904203521 | 32 | 214 | 4.8 | 4.8 | 0.00 | 0.00 | 0.00 | 60 | 1014.5 |
| 20260904203017 | 32 | 254 | 3.2 | 4.8 | 0.00 | 0.00 | 0.00 | 59 | 1014.8 |
| 20260904202513 | 32 | 243 | 3.2 | 3.2 | 0.00 | 0.00 | 0.00 | 61 | 1014.8 |
| 20260904202009 | 32 | 265 | 3.2 | 3.2 | 0.00 | 0.00 | 0.00 | 61 | 1014.8 |
| 20260904201503 | 31 | 252 | 1.6 | 1.6 | 0.00 | 0.00 | 0.00 | 61 | 1015.2 |
| 20260904200959 | 32 | 303 | 4.8 | 4.8 | 0.00 | 0.00 | 0.00 | 61 | 1015.2 |
| 20260904200457 | 31 | 208 | 4.8 | 4.8 | 0.00 | 0.00 | 0.00 | 64 | 1015.2 |
| 20260904195952 | 31 | 176 | 1.6 | 1.6 | 0.00 | 0.00 | 0.00 | 65 | 1015.2 |
| 20260904195451 | 31 | 259 | 1.6 | 1.6 | 0.00 | 0.00 | 0.00 | 65 | 1015.2 |
| 20260904194950 | 31 | 203 | 1.6 | 3.2 | 0.00 | 0.00 | 0.00 | 66 | 1015.5 |
| 20260904194445 | 31 | 252 | 3.2 | 3.2 | 0.00 | 0.00 | 0.00 | 66 | 1015.2 |
| 20260904193940 | 30 | 263 | 3.2 | 3.2 | 0.00 | 0.00 | 0.00 | 69 | 1015.2 |
| 20260904193435 | 30 | 225 | 1.6 | 1.6 | 0.00 | 0.00 | 0.00 | 71 | 1015.5 |
| 20260904192931 | 30 | 230 | 3.2 | 3.2 | 0.00 | 0.00 | 0.00 | 71 | 1015.2 |
| 20260904192426 | 30 | 199 | 3.2 | 3.2 | 0.00 | 0.00 | 0.00 | 71 | 1015.5 |
| 20260904191922 | 30 | 204 | 1.6 | 3.2 | 0.00 | 0.00 | 0.00 | 71 | 1015.5 |
| 20260904191418 | 30 | 250 | 1.6 | 3.2 | 0.00 | 0.00 | 0.00 | 73 | 1015.5 |
| 20260904190915 | 29 | 213 | 1.6 | 1.6 | 0.00 | 0.00 | 0.00 | 75 | 1015.8 |
| 20260904190410 | 29 | 249 | 4.8 | 4.8 | 0.00 | 0.00 | 0.00 | 75 | 1015.8 |
| 20260904185907 | 28 | 233 | 1.6 | 3.2 | 0.00 | 0.00 | 0.00 | 76 | 1016.2 |
| 20260904185402 | 28 | 266 | 1.6 | 1.6 | 0.00 | 0.00 | 0.00 | 77 | 1015.8 |
| 20260904184901 | 28 | 199 | 3.2 | 4.8 | 0.00 | 0.00 | 0.00 | 78 | 1015.8 |
| 20260904184356 | 28 | 236 | 4.8 | 4.8 | 0.00 | 0.00 | 0.00 | 80 | 1016.2 |